Location: Norderney
(53.7000°N, 7.1500°E)
Time: 17:27:02
(UTC+02:00)

ACS3 Solar Sail - Pass Details

Date: 21 August 2024
Orbit: 980 x 1030 km, 97.4° (Epoch: 08 September)

Event Time Altitude Azimuth Distance (km) Brightness Sun altitude
Exits shadow 21:10:32 - 146° (SE) 3,772 4.3 -4.1°
Rises 21:10:35 0° 146° (SE) 3,750 4.3 -4.1°
Reaches altitude 10° 21:13:07 10° 142° (SE) 2,810 3.7 -4.5°
Maximum altitude 21:19:15 54° 67° (ENE) 1,244 2.2 -5.3°
Drops below altitude 10° 21:25:30 10° 352° (N) 2,855 4.8 -6.1°
Sets 21:28:05 0° 349° (NNW) 3,814 5.6 -6.4°
